GW2484 Weather Reports


Display with metric or nautical units.
time (UTC)temp
F
wind
direction
speed
MPH
gust
MPH
rain 1hr
in
rain 24hr
in
rain mn
in
humidity
%
barometer
mb
20260505125011 66 91 5.0 10.0 0.00 0.00 0.00 79 1003.8
20260505124527 66 117 4.0 10.0 0.00 0.00 0.00 79 1003.8
20260505124013 66 99 6.0 12.0 0.00 0.00 0.00 79 1003.8
20260505123509 66 58 7.0 12.0 0.00 0.00 0.00 79 1003.7
20260505123041 66 85 3.0 18.0 0.00 0.00 0.00 79 1003.6
20260505122510 66 86 8.0 18.0 0.00 0.00 0.00 79 1003.4
20260505122018 66 106 8.0 14.0 0.00 0.00 0.00 79 1003.4
20260505121526 66 52 8.0 14.0 0.00 0.00 0.00 79 1003.4
20260505121007 66 88 6.0 12.0 0.00 0.00 0.00 79 1003.4
20260505120509 66 23 5.0 12.0 0.00 0.00 0.00 79 1003.3
20260505120023 66 42 5.0 12.0 0.00 0.00 0.00 79 1003.4
20260505115507 66 71 7.0 13.0 0.00 0.00 0.00 79 1003.3
20260505115009 66 37 5.0 13.0 0.00 0.00 0.00 79 1003.2
20260505114523 66 95 7.0 13.0 0.00 0.00 0.00 79 1003.2
20260505114009 66 100 5.0 11.0 0.00 0.00 0.00 79 1003.3
20260505113508 66 65 5.0 11.0 0.00 0.00 0.00 79 1003.2
20260505113018 66 48 3.0 11.0 0.00 0.00 0.00 79 1003.2
20260505112512 66 19 5.0 10.0 0.00 0.00 0.00 79 1003.1
20260505112010 66 8 4.0 10.0 0.00 0.00 0.00 79 1003.0
20260505111520 66 79 5.0 11.0 0.00 0.00 0.00 79 1003.0
20260505111004 66 62 5.0 12.0 0.00 0.00 0.00 79 1002.9
20260505110509 66 79 7.0 12.0 0.00 0.00 0.00 79 1002.7
20260505102007 66 71 5.0 11.0 0.00 0.00 0.00 79 1002.2
20260505101508 66 45 3.0 11.0 0.00 0.00 0.00 79 1002.2
20260505101009 66 94 4.0 10.0 0.00 0.00 0.00 79 1002.2
20260505100507 66 81 4.0 10.0 0.00 0.00 0.00 79 1002.1
20260505100005 66 85 5.0 12.0 0.00 0.00 0.00 79 1002.0
20260505095512 66 79 3.0 12.0 0.00 0.00 0.00 79 1002.0
20260505095007 66 69 4.0 11.0 0.00 0.00 0.00 79 1001.9
20260505094526 66 55 6.0 11.0 0.00 0.00 0.00 79 1001.9
20260505094010 66 75 6.0 10.0 0.00 0.00 0.00 79 1002.1
20260505093505 66 71 4.0 12.0 0.00 0.00 0.00 79 1002.0
20260505093022 66 50 4.0 13.0 0.00 0.00 0.00 78 1002.1
20260505092508 66 67 7.0 13.0 0.00 0.00 0.00 78 1002.1
20260505092004 66 76 3.0 13.0 0.00 0.00 0.00 78 1002.1
20260505091522 67 71 7.0 13.0 0.00 0.00 0.00 77 1002.2
20260505091007 67 75 4.0 9.0 0.00 0.00 0.00 77 1002.2
20260505090510 67 69 5.0 10.0 0.00 0.00 0.00 76 1002.3
20260505090016 67 65 4.0 11.0 0.00 0.00 0.00 76 1002.4
20260505085503 67 80 4.0 11.0 0.00 0.00 0.00 76 1002.4
20260505085007 68 43 5.0 11.0 0.00 0.00 0.00 75 1002.4
20260505084517 68 69 4.0 9.0 0.00 0.00 0.00 75 1002.4
20260505084002 68 50 4.0 9.0 0.00 0.00 0.00 75 1002.2
20260505083507 68 85 5.0 10.0 0.00 0.00 0.00 75 1002.3
20260505083012 68 82 4.0 11.0 0.00 0.00 0.00 75 1002.4
20260505082510 68 94 6.0 10.0 0.00 0.00 0.00 74 1002.4
20260505082011 68 76 3.0 11.0 0.00 0.00 0.00 74 1002.4
20260505081508 68 98 3.0 11.0 0.00 0.00 0.00 74 1002.4
20260505081010 68 98 7.0 15.0 0.00 0.00 0.00 74 1002.3
20260505080510 68 104 8.0 15.0 0.00 0.00 0.00 75 1002.4
20260505080007 68 42 4.0 12.0 0.00 0.00 0.00 75 1002.4
20260505075510 68 79 5.0 9.0 0.00 0.00 0.00 75 1002.5
20260505075006 68 68 3.0 11.0 0.00 0.00 0.00 75 1002.7
20260505074007 68 34 5.0 10.0 0.00 0.00 0.00 75 1002.8
20260505073505 68 85 5.0 10.0 0.00 0.00 0.00 75 1003.0
20260505073024 68 53 4.0 8.0 0.00 0.00 0.00 75 1003.1
20260505072508 67 54 4.0 7.0 0.00 0.00 0.00 75 1003.1
20260505072010 67 56 4.0 8.0 0.00 0.00 0.00 75 1003.0
20260505071540 67 59 4.0 8.0 0.00 0.00 0.00 75 1003.2
20260505071006 67 44 5.0 9.0 0.00 0.00 0.00 75 1003.3
20260505070512 67 31 3.0 9.0 0.00 0.00 0.00 75 1003.3
20260505070018 67 63 2.0 6.0 0.00 0.00 0.00 75 1003.1
20260505065507 67 53 2.0 6.0 0.00 0.00 0.00 75 1003.4
20260505065007 67 29 2.0 6.0 0.00 0.00 0.00 75 1003.6
20260505064518 67 29 3.0 5.0 0.00 0.00 0.00 75 1003.7
20260505064012 67 36 1.0 4.0 0.00 0.00 0.00 74 1003.6
20260505063507 67 36 0.0 4.0 0.00 0.00 0.00 74 1003.6
20260505063015 68 94 1.0 3.0 0.00 0.00 0.00 74 1003.6
20260505062512 68 143 1.0 3.0 0.00 0.00 0.00 74 1003.4
20260505062008 68 144 0.0 6.0 0.00 0.00 0.00 74 1003.0
20260505061512 68 150 1.0 6.0 0.00 0.00 0.00 73 1002.6
20260505061007 68 150 4.0 9.0 0.00 0.00 0.00 73 1002.4
20260505060506 68 166 4.0 10.0 0.00 0.00 0.00 73 1002.4
20260505060010 68 139 4.0 10.0 0.00 0.00 0.00 73 1002.3
20260505055507 68 181 4.0 11.0 0.00 0.00 0.00 73 1002.4
20260505055007 68 193 5.0 12.0 0.00 0.00 0.00 72 1002.5
20260505054516 68 158 6.0 12.0 0.00 0.00 0.00 72 1002.6
20260505054008 68 158 4.0 14.0 0.00 0.00 0.00 72 1002.7
20260505053509 68 162 4.0 14.0 0.00 0.00 0.00 71 1002.8
20260505053005 69 174 4.0 11.0 0.00 0.00 0.00 71 1002.9
20260505052505 69 173 6.0 11.0 0.00 0.00 0.00 71 1002.8
20260505052007 69 124 6.0 12.0 0.00 0.00 0.00 70 1002.9
20260505051512 69 157 7.0 13.0 0.00 0.00 0.00 70 1003.0
20260505051007 69 159 6.0 13.0 0.00 0.00 0.00 71 1002.8
20260505050503 68 154 5.0 11.0 0.00 0.00 0.00 71 1002.9
20260505041511 68 125 6.0 14.0 0.00 0.00 0.00 69 1002.9
20260505041004 68 159 4.0 13.0 0.00 0.00 0.00 69 1003.1
20260505040508 69 148 3.0 13.0 0.00 0.00 0.00 69 1003.2
20260505040016 69 136 4.0 13.0 0.00 0.00 0.00 69 1003.1
20260505035507 69 188 5.0 13.0 0.00 0.00 0.00 69 1003.0
20260505035011 69 110 4.0 14.0 0.00 0.00 0.00 68 1003.3
20260505034517 69 167 5.0 17.0 0.00 0.00 0.00 68 1003.2
20260505034007 69 157 8.0 17.0 0.00 0.00 0.00 67 1003.4
20260505033507 70 183 5.0 13.0 0.00 0.00 0.00 65 1003.5
20260505033010 70 108 5.0 13.0 0.00 0.00 0.00 64 1003.6
20260505032506 70 181 6.0 13.0 0.00 0.00 0.00 64 1003.5
20260505032008 70 146 6.0 14.0 0.00 0.00 0.00 64 1003.8
20260505031516 70 175 7.0 14.0 0.00 0.00 0.00 64 1003.7
20260505031007 70 123 5.0 13.0 0.00 0.00 0.00 64 1003.8
20260505025512 70 142 4.0 11.0 0.00 0.00 0.00 63 1004.1
20260505025004 71 115 5.0 11.0 0.00 0.00 0.00 62 1004.1
20260505024518 71 107 5.0 10.0 0.00 0.00 0.00 62 1004.0
20260505024009 71 119 3.0 13.0 0.00 0.00 0.00 61 1004.2
20260505023507 71 165 3.0 13.0 0.00 0.00 0.00 61 1004.2
20260505023019 71 160 4.0 11.0 0.00 0.00 0.00 61 1004.1
20260505022506 72 175 6.0 12.0 0.00 0.00 0.00 60 1004.0
20260505022010 72 154 8.0 12.0 0.00 0.00 0.00 60 1003.9
20260505021523 72 142 7.0 15.0 0.00 0.00 0.00 60 1004.0
20260505021007 72 150 7.0 15.0 0.00 0.00 0.00 60 1003.9
20260505020507 72 123 8.0 15.0 0.00 0.00 0.00 60 1004.1
20260505020018 72 141 5.0 12.0 0.00 0.00 0.00 59 1004.0
20260505015507 72 154 4.0 12.0 0.00 0.00 0.00 59 1004.0
20260505015008 73 166 6.0 12.0 0.00 0.00 0.00 59 1004.0
20260505014519 73 140 6.0 12.0 0.00 0.00 0.00 59 1003.9
20260505014008 73 115 6.0 11.0 0.00 0.00 0.00 59 1004.1
20260505013507 73 227 5.0 10.0 0.00 0.00 0.00 58 1004.2
20260505013022 73 163 5.0 10.0 0.00 0.00 0.00 58 1004.1
20260505012509 73 157 4.0 11.0 0.00 0.00 0.00 58 1004.1
20260505012007 74 131 5.0 14.0 0.00 0.00 0.00 58 1004.1
20260505011520 74 171 7.0 14.0 0.00 0.00 0.00 58 1004.0
20260505011006 74 162 5.0 11.0 0.00 0.00 0.00 57 1003.8
20260505010507 74 156 4.0 14.0 0.00 0.00 0.00 57 1003.9
20260505010020 74 167 5.0 14.0 0.00 0.00 0.00 56 1003.9
20260505005512 75 141 7.0 13.0 0.00 0.00 0.00 56 1004.0
20260505005007 75 110 5.0 13.0 0.00 0.00 0.00 56 1004.0
20260505004543 75 168 7.0 15.0 0.00 0.00 0.00 56 1003.8
20260505004008 75 142 6.0 15.0 0.00 0.00 0.00 56 1003.8
20260505003507 75 122 5.0 15.0 0.00 0.00 0.00 56 1004.0
20260505003020 75 134 5.0 18.0 0.00 0.00 0.00 56 1004.0
20260505002507 76 154 8.0 18.0 0.00 0.00 0.00 56 1003.9
20260505002007 76 171 5.0 14.0 0.00 0.00 0.00 56 1004.1
20260505001522 76 162 7.0 14.0 0.00 0.00 0.00 56 1004.1
20260505001010 76 152 6.0 15.0 0.00 0.00 0.00 56 1004.3
20260504235507 77 164 5.0 19.0 0.00 0.00 0.00 55 1004.3
20260504235009 77 165 7.0 19.0 0.00 0.00 0.00 54 1004.2
20260504234520 77 158 6.0 18.0 0.00 0.00 0.00 54 1004.3
20260504234004 77 151 10.0 16.0 0.00 0.00 0.00 54 1004.2
20260504233503 77 167 8.0 16.0 0.00 0.00 0.00 54 1004.3
20260504233023 77 153 8.0 18.0 0.00 0.00 0.00 54 1004.3
20260504232503 77 171 8.0 18.0 0.00 0.00 0.00 54 1004.4
20260504232007 77 156 7.0 19.0 0.00 0.00 0.00 54 1004.3
20260504231512 77 142 8.0 19.0 0.00 0.00 0.00 54 1004.4
20260504231006 77 196 6.0 21.0 0.00 0.00 0.00 54 1004.5
20260504230507 77 154 10.0 21.0 0.00 0.00 0.00 53 1004.4
20260504230010 77 160 10.0 21.0 0.00 0.00 0.00 53 1004.4
20260504225504 77 172 7.0 22.0 0.00 0.00 0.00 53 1004.5
20260504225007 78 182 10.0 22.0 0.00 0.00 0.00 53 1004.5
20260504224507 78 155 7.0 20.0 0.00 0.00 0.00 52 1004.5
20260504224007 78 167 10.0 20.0 0.00 0.00 0.00 52 1004.4
20260504223507 78 171 13.0 20.0 0.00 0.00 0.00 53 1004.4
20260504223004 78 171 7.0 16.0 0.00 0.00 0.00 53 1004.3
20260504222508 78 148 9.0 16.0 0.00 0.00 0.00 53 1004.2
20260504222008 79 155 8.0 18.0 0.00 0.00 0.00 53 1004.2
20260504221527 79 173 10.0 18.0 0.00 0.00 0.00 53 1004.1
20260504221006 79 172 6.0 17.0 0.00 0.00 0.00 53 1003.9
20260504220506 79 176 8.0 18.0 0.00 0.00 0.00 53 1004.1
20260504220020 79 154 8.0 15.0 0.00 0.00 0.00 53 1004.2
20260504215507 79 143 8.0 14.0 0.00 0.00 0.00 52 1004.3
20260504215006 79 164 7.0 12.0 0.00 0.00 0.00 52 1004.5
20260504213504 79 200 7.0 23.0 0.00 0.00 0.00 53 1004.4
20260504213032 79 168 8.0 22.0 0.00 0.00 0.00 52 1004.6
20260504212506 79 167 9.0 22.0 0.00 0.00 0.00 51 1004.6
20260504212013 79 167 14.0 22.0 0.00 0.00 0.00 51 1004.5
20260504211515 79 198 9.0 21.0 0.00 0.00 0.00 52 1004.6
20260504211003 79 137 10.0 24.0 0.00 0.00 0.00 51 1004.5
20260504210511 79 94 10.0 24.0 0.00 0.00 0.00 52 1004.6
20260504210014 79 146 9.0 20.0 0.00 0.00 0.00 51 1004.7
20260504205506 79 119 12.0 20.0 0.00 0.00 0.00 51 1004.6
20260504205013 80 179 10.0 20.0 0.00 0.00 0.00 51 1004.8
20260504204513 79 144 13.0 26.0 0.00 0.00 0.00 51 1004.8
20260504204009 79 150 16.0 26.0 0.00 0.00 0.00 50 1004.9
20260504203507 80 144 9.0 26.0 0.00 0.00 0.00 51 1005.0
20260504203006 80 134 11.0 27.0 0.00 0.00 0.00 52 1005.0
20260504202507 79 164 8.0 27.0 0.00 0.00 0.00 52 1005.2
20260504202007 80 164 12.0 22.0 0.00 0.00 0.00 50 1005.3
20260504201528 80 158 10.0 22.0 0.00 0.00 0.00 52 1005.4
20260504201011 80 174 12.0 19.0 0.00 0.00 0.00 51 1005.5
20260504200509 80 151 10.0 22.0 0.00 0.00 0.00 52 1005.6
20260504200026 80 152 8.0 22.0 0.00 0.00 0.00 51 1005.6
20260504195507 80 166 10.0 17.0 0.00 0.00 0.00 52 1005.6
20260504195004 81 191 10.0 22.0 0.00 0.00 0.00 51 1005.7
20260504194525 80 157 9.0 22.0 0.00 0.00 0.00 49 1005.7
20260504194007 80 183 11.0 25.0 0.00 0.00 0.00 49 1005.7
20260504193505 80 183 9.0 21.0 0.00 0.00 0.00 52 1005.7
20260504193020 80 142 12.0 21.0 0.00 0.00 0.00 49 1005.7
20260504192510 80 155 8.0 24.0 0.00 0.00 0.00 50 1005.7
20260504192008 80 152 14.0 25.0 0.00 0.00 0.00 48 1005.8
20260504191516 80 190 17.0 25.0 0.00 0.00 0.00 48 1005.8
20260504191004 80 136 9.0 22.0 0.00 0.00 0.00 49 1005.8
20260504190509 80 164 10.0 22.0 0.00 0.00 0.00 49 1005.9
20260504190020 80 161 11.0 19.0 0.00 0.00 0.00 50 1006.0
20260504185512 79 158 8.0 26.0 0.00 0.00 0.00 51 1006.1
20260504185007 80 157 14.0 26.0 0.00 0.00 0.00 51 1006.2
20260504184529 80 181 13.0 24.0 0.00 0.00 0.00 50 1006.4
20260504184015 80 163 11.0 26.0 0.00 0.00 0.00 50 1006.3
20260504183512 80 178 9.0 26.0 0.00 0.00 0.00 50 1006.4
20260504183012 80 173 11.0 23.0 0.00 0.00 0.00 50 1006.5
20260504182517 80 176 11.0 23.0 0.00 0.00 0.00 51 1006.6
20260504182008 81 166 11.0 23.0 0.00 0.00 0.00 49 1006.6
20260504181528 80 160 6.0 23.0 0.00 0.00 0.00 53 1006.6
20260504181008 80 184 8.0 18.0 0.00 0.00 0.00 50 1006.7
20260504180505 80 150 9.0 21.0 0.00 0.00 0.00 50 1006.8
20260504180032 80 214 7.0 21.0 0.00 0.00 0.00 51 1006.9
20260504175507 79 135 11.0 23.0 0.00 0.00 0.00 51 1007.0
20260504175015 79 193 10.0 24.0 0.00 0.00 0.00 51 1007.0
20260504174504 79 194 11.0 24.0 0.00 0.00 0.00 50 1007.1
20260504174008 79 161 9.0 23.0 0.00 0.00 0.00 50 1007.1
20260504173505 79 167 12.0 23.0 0.00 0.00 0.00 51 1007.2
20260504173025 78 175 12.0 20.0 0.00 0.00 0.00 50 1007.4
20260504172508 78 162 10.0 23.0 0.00 0.00 0.00 50 1007.4
20260504172004 78 165 9.0 23.0 0.00 0.00 0.00 51 1007.4
20260504171522 78 171 8.0 24.0 0.00 0.00 0.00 51 1007.5
20260504171013 78 211 11.0 22.0 0.00 0.00 0.00 51 1007.5
20260504170505 78 154 11.0 20.0 0.00 0.00 0.00 51 1007.5
20260504151007 74 182 9.0 15.0 0.00 0.00 0.00 50 1008.7
20260504150506 73 223 7.0 16.0 0.00 0.00 0.00 51 1008.7
20260504141017 68 206 7.0 16.0 0.00 0.00 0.00 57 1008.9
20260504140509 68 196 7.0 16.0 0.00 0.00 0.00 58 1008.9